Overview Statistics Trail Chart Weather Telemetry Raw packets
 

This is the latest recevied weather packets stored in our database for station/object K4XP. If no packets are shown the sender has not sent any weather packets the latest 10 day(s).

<< 39 40 41 42 43 44 45 >>
Time Temp. Humidity Pressure Rain* Wind** Luminosity Snow
1788374719 35° C 54% 1018.6 hPa 0 mm - - -
1788374428 35° C 53% 1018.6 hPa 0 mm - - -
1788374111 35° C 55% 1018.6 hPa 0 mm - - -
1788373225 34.44° C 54% 1018.7 hPa 0 mm - - -
1788372932 34.44° C 57% 1018.8 hPa 0 mm - - -
1788372314 34.44° C 56% 1018.9 hPa 0 mm - - -
1788372016 33.89° C 58% 1019 hPa 0 mm - - -
1788371724 33.89° C 58% 1018.9 hPa 0 mm - - -
1788371432 33.89° C 59% 1018.9 hPa 0 mm - - -
1788371114 33.89° C 58% 1019 hPa 0 mm - - -
1788370819 34.44° C 58% 1019.1 hPa 0 mm - - -
1788370527 34.44° C 56% 1019.1 hPa 0 mm - - -
1788370213 34.44° C 59% 1019.1 hPa 0 mm - - -
1788369919 34.44° C 58% 1019.1 hPa 0 mm - - -
1788369627 34.44° C 57% 1019.1 hPa 0 mm - - -
1788369329 34.44° C 57% 1019.2 hPa 0 mm - - -
1788369036 34.44° C 56% 1019.2 hPa 0 mm - - -
1788368715 33.89° C 58% 1019.4 hPa 0 mm - - -
1788368424 33.89° C 59% 1019.4 hPa 0 mm - - -
1788368124 33.89° C 59% 1019.5 hPa 0 mm - - -
1788367813 33.33° C 59% 1019.5 hPa 0 mm - - -
1788367512 33.33° C 59% 1019.7 hPa 0 mm - - -
1788367220 33.33° C 61% 1019.7 hPa 0 mm - - -
1788366923 33.33° C 59% 1019.7 hPa 0 mm - - -
1788366612 33.33° C 61% 1019.8 hPa 0 mm - - -

* Rain latest hour (hover to see other rain measurements)
** Current wind speed in m/s (hover to see current wind gust speed)